DECAYED

STARLINK-2344, 47885 (Decayed)

Orbit data source: Space-Track

STARLINK-2344, 47885 was a payload satellite owned by SpaceX/Seattle (US) in LEO that was launched on Sun, 14 Mar 2021 UTC via an FALCON 9 launch vehicle from the Air Force Eastern Test Range (AFETR). Payload-class satellites include a variety of spacecraft equipped with specific instruments for various scientific and technological missions. These include communications satellites like Starlink; space stations such as the ISS; scientific satellites like the Hubble; Earth observation satellites from companies like Planet Labs, Umbra, and HawkEye 360; GPS; miniature CubeSats for education and research; and military/defense satellites.

Not visible in the next 10 days
Identifier
47885, 2021-021AB
Orbit
Decayed
Country
Flag of USUS
Related business
Manufacturer
SpaceX/Seattle
Mission
Decayed Commercial Communications
Bus & Motor
STARLINK, Unknown motor
Mass
260 kg wet, ~248 kg dry
Launch date (UTC)
2021-03-14 (5 years ago)
Launch vehicle
FALCON 9
Launch site
Air Force Eastern Test Range (AFETR)
Object type
Payload
Rocket body
Debris
Shape & HBR
Box + 1 Pan, 10.1 m
Radar Cross Section
13.562 m², Large (>1 m²)

Expand to show TLE details & history
Last TLE update: 1 year ago

TLE from 1 year ago
0 STARLINK-2344
1 47885U 21021AB  25062.61827535  .16953108  12537-4  61176-3 0  9999
2 47885  53.0333 107.4292 0003705  25.5943 111.3039 16.44262142220193
Epoch: 2025-03-03T14:50Z
TLE epoch observation values (Epoch: 2025-03-03T14:50:18.990Z)
Latitude
33.1729°
Longitude
-126.06954°
Altitude
157.593 km
Speed
7.816 km/s
True Right ascension
17h 12m 34s
True Declination
33° 00' 04"
Sunlit
Object was in daylight at epoch
Visualization orbit readout
Latitude
Unknown
Longitude
Unknown
Altitude
Unknown
Speed
Unknown
Apparent Right ascension
Unknown
Apparent Declination
Unknown
Sunlit
N/A
Visualization observer readout
Local Sidereal Time
00:34:42
Azimuth
Unknown
Elevation
Unknown
Doppler factor
Unknown
Orbital elements
Apogee altitude
157.2 km
Perigee altitude
152.359 km
Semi-major axis
6,532.916 km
Eccentricity
0.00037
Inclination
53.0333°
RAAN
107.4292°
Arg. of periapsis
25.5943°
True anomaly
111.34345°
Mean anomaly
111.3039°
Eccentric anomaly
111.32367°
Mean motion
4.11039 °/min
Orbital period
87.58 mins
BSTAR
0.00061176
Loading maneuver chart data...
Computing Atmospheric mass density...

Documentation

Showing up to 5 results
|